Change the Weather History Date:

Tuesday, June 5, 2012

  Actual Average Record
Temperature  
Mean Temperature 67 °F 68 °F  
Max Temperature 79 °F 79 °F 97 °F (1933)
Min Temperature 54 °F 57 °F 41 °F (1945)
Degree Days  
Heating Degree Days 0 1  
Month to date heating degree days 10 8  
Since 1 June heating degree days 10 8  
Since 1 July heating degree days 5045 6192  
Cooling Degree Days 2 5  
Month to date cooling degree days 6 22  
Year to date cooling degree days 155 98  
Since 1 June cooling degree days 6 22  
Growing Degree Days 16 (Base 50)    
Moisture  
Dew Point 53 °F    
Average Humidity 67    
Maximum Humidity 93    
Minimum Humidity 40    
Precipitation  
Precipitation 0.00 in 0.15 in 1.73 in (1914)
Month to date precipitation 0.24 0.75  
Year to date precipitation 13.40 14.61  
Snow  
Snow 0.00 in 0.00 in - ()
Month to date snowfall 0.0 0.0  
Since 1 June snowfall 0.0 0.0  
Since 1 July snowfall 16.9 31.6  
Snow Depth 0.00 in    
Sea Level Pressure  
Sea Level Pressure 29.97 in    
Wind  
Wind Speed 6 mph (East)    
Max Wind Speed 15 mph    
Max Gust Speed 21 mph    
Visibility 10 miles    
Events      
T = Trace of Precipitation, MM = Missing Value Source: NWS Daily Summary

Daily Weather History Graph

Daily Weather History Graph

Search for Another Location

Airport or City:

Trip Planner

Search our weather history database for the weather conditions in past years. The results will help you decide how hot, cold, wet, or windy it might be!

Date:

Astronomy

Jun. 05, 2012 Rise Set
Actual Time 5:29 AM CDT 8:32 PM CDT
Civil Twilight 4:55 AM CDT 9:06 PM CDT
Nautical Twilight 4:12 AM CDT 9:48 PM CDT
Astronomical Twilight 3:22 AM CDT 10:39 PM CDT
Moon 9:57 PM CDT (6/5) 6:41 AM CDT (6/5)
Length of Visible Light 16h 10m
Length of Day
15h 03m
Full, 98% of the Moon is Illuminated
Jun 5
Full
Jun 11
Last Quarter
Jun 19
New
Jun 26
First Quarter
Jul 3
Full

Hourly Weather History & Observations

Time (CDT) Temp. Dew Point Humidity Pressure Visibility Wind Dir Wind Speed Gust Speed Precip Events Conditions
12:52 AM 57.9 °F 55.0 °F 90% 29.93 in 10.0 mi ESE 4.6 mph - N/A   Clear
1:52 AM 57.9 °F 54.0 °F 87% 29.94 in 10.0 mi Calm Calm - N/A   Clear
2:52 AM 57.0 °F 54.0 °F 89% 29.94 in 10.0 mi Calm Calm - N/A   Clear
3:52 AM 55.9 °F 53.1 °F 90% 29.94 in 10.0 mi Calm Calm - N/A   Partly Cloudy
4:52 AM 55.9 °F 53.1 °F 90% 29.95 in 10.0 mi Calm Calm - N/A   Mostly Cloudy
5:52 AM 57.0 °F 54.0 °F 89% 29.98 in 10.0 mi Calm Calm - N/A   Overcast
6:52 AM 59.0 °F 55.0 °F 87% 29.99 in 10.0 mi Calm Calm - N/A   Overcast
7:52 AM 63.0 °F 51.1 °F 65% 29.99 in 10.0 mi NE 3.5 mph - N/A   Overcast
8:52 AM 66.9 °F 50.0 °F 54% 30.00 in 10.0 mi ENE 5.8 mph - N/A   Overcast
9:52 AM 70.0 °F 51.1 °F 51% 30.01 in 10.0 mi Calm Calm - N/A   Mostly Cloudy
10:52 AM 71.6 °F 55.4 °F 57% 30.01 in 10.0 mi Variable 3.5 mph - N/A   Partly Cloudy
11:52 AM 73.9 °F 55.0 °F 52% 30.00 in 10.0 mi ENE 8.1 mph - N/A   Clear
12:52 PM 75.9 °F 57.0 °F 52% 29.99 in 10.0 mi ENE 8.1 mph - N/A   Clear
1:52 PM 77.0 °F 53.1 °F 43% 29.98 in 10.0 mi East 8.1 mph - N/A   Clear
2:52 PM 77.0 °F 54.0 °F 45% 29.97 in 10.0 mi SE 8.1 mph - N/A   Mostly Cloudy
3:52 PM 78.1 °F 54.0 °F 43% 29.96 in 10.0 mi East 9.2 mph - N/A   Scattered Clouds
4:52 PM 75.9 °F 53.1 °F 45% 29.95 in 10.0 mi ENE 13.8 mph 20.7 mph N/A   Clear
5:52 PM 77.0 °F 52.0 °F 42% 29.94 in 10.0 mi East 10.4 mph - N/A   Clear
6:52 PM 73.9 °F 51.1 °F 45% 29.94 in 10.0 mi NE 11.5 mph - N/A   Partly Cloudy
7:52 PM 72.0 °F 51.1 °F 48% 29.95 in 10.0 mi East 13.8 mph - N/A   Clear
8:52 PM 64.0 °F 52.0 °F 65% 29.96 in 10.0 mi East 8.1 mph - N/A   Clear
9:52 PM 64.4 °F 51.8 °F 64% 29.99 in 10.0 mi ENE 9.2 mph - N/A   Clear
10:52 PM 61.0 °F 50.0 °F 67% 30.00 in 10.0 mi East 6.9 mph - N/A   Clear
11:52 PM 60.1 °F 48.9 °F 67% 30.01 in 10.0 mi SE 3.5 mph - N/A   Clear